Regional Weather Roundup
Issued by NWS

Home | Current Version | Previous Version | Text Only | Print | Product List | Glossary On
Versions: 1 2 3 4 5 6 7 8 9 10 11 12 13 14 15 16 17 18 19 20 21 22 23 24 25 26 27 28 29 30 31 32 33 34 35 36 37 38 39 40 41 42 43 44 45 46 47 48 49 50
000
ASUS43 KTOP 032059
RWRKS

WEATHER ROUNDUP FOR KANSAS
NATIONAL WEATHER SERVICE GOODLAND KS
400 PM CDT MON AUG 03 2015

NOTE:  "FAIR" INDICATES FEW OR NO CLOUDS BELOW 12,000 FEET WITH NO
SIGNIFICANT WEATHER AND/OR OBSTRUCTIONS TO VISIBILITY.

KSZ001>006-013>018-027>032-041>047-032200-
NORTHWEST KANSAS

CITY           SKY/WX    TMP DP  RH WIND       PRES   REMARKS
GOODLAND       PTSUNNY   91  59  33 SE16      29.99F
HAYS           PTSUNNY   93  66  40 SE14      29.92F HX  96
HILL CITY      MOSUNNY   94  65  38 SE8       29.93F HX  96
RUSSELL        PTSUNNY   92  66  42 VRB7      29.91S
$$

KSZ061>065-074>080-084>089-032200-
SOUTHWEST KANSAS

CITY           SKY/WX    TMP DP  RH WIND       PRES   REMARKS
DODGE CITY     SUNNY     90  60  36 S12G17    29.96F
ELKHART          N/A     89  66  46 SE13        N/A
GARDEN CITY    MOSUNNY   88  64  44 S13       29.96S
GREAT BEND     PTSUNNY   91  66  43 S13G18    29.91F
LIBERAL        SUNNY     90  63  40 S7G20     29.95F
PRATT          MOSUNNY   90  61  37 SE8       29.95F
$$

KSZ066>073-081>083-090>101-032200-
SOUTHEAST KANSAS

CITY           SKY/WX    TMP DP  RH WIND       PRES   REMARKS
CHANUTE        MOSUNNY   93  65  39 S3        29.92F HX  95
COFFEYVILLE    MOSUNNY   95  64  35 SW7       29.92F HX  97
HUTCHINSON     PTSUNNY   92  70  48 SE10      29.93F HX  97
MEDICINE LODGE   N/A     92  67  43 S9G17     29.91F HX  95
NEWTON         PTSUNNY   93  70  46 SW9       29.96F HX  99
PARSONS        MOSUNNY   94  67  41 SW8       29.94F HX  97
WICHITA INTL   PTSUNNY   91  69  48 S7        29.92F HX  96
WICHITA JABRA  PTSUNNY   90  69  50 S6        29.93F
$$

KSZ007>012-019>026-033>040-048>060-102>105-032200-
NORTHEAST KANSAS

CITY           SKY/WX    TMP DP  RH WIND       PRES   REMARKS
CONCORDIA      SUNNY     92  72  51 E8        29.91F HX  99
EMPORIA        MOSUNNY   91  67  44 VRB3      29.92F
LAWRENCE       MOSUNNY   92  70  48 E5        29.90F HX  97
MANHATTAN      MOSUNNY   94  68  42 MISG      29.89F HX  98
OLATHE IND     MOSUNNY   92  69  47 VRB7      29.93S HX  97
OLATHE EXE     MOSUNNY   92  68  45 CALM      29.92S HX  96
SALINA         MOSUNNY   95  66  38 SE10      29.90F HX  98
TOPEKA BILLARD SUNNY     93  71  48 S8        29.89F HX 100
TOPEKA FORBES  SUNNY     94  68  42 SW6       29.91F HX  98
$$



USA.gov is the U.S. government's official web portal to all federal, state and local government web resources and services.